Location: Chiroubles
(46.1812°N, 4.6660°E)
Time: 03:30:20
(UTC+00:00)

Cosmos 1666 - Pass Details

Date: 15 August 2020
Orbit: 498 x 520 km, 82.5° (Epoch: 27 September)

Event Time Altitude Azimuth Distance (km) Brightness Sun altitude
Exits shadow 22:11:39 38° 312° (NW) 778 4.0 -26.5°
Drops below altitude 10° 22:14:37 10° 356° (N) 1,727 6.2 -26.7°
Sets 22:16:50 0° 3° (N) 2,622 7.2 -26.9°
